Starlink 32196

operational
NORAD ID: 60430 Int'l Des: 2024-144 Owner: SPXS Country: US Constellation: starlink
LEOCIRCULAR

Starlink 32196について

説明を読み込み中...

リアルタイム位置

3D地球を読み込み中...

次回通過

高度履歴

Altitude vs Time

uPlot chart will show altitude changes over time

軌道要素

1 60430U 24144F 25303.16220761 .00000034 00000-0 13261-4 0 9990
2 60430 53.1620 103.5016 0000748 91.3461 268.7626 15.30193105 69326
Epoch: Oct 30, 2025 • Age: 30 hours

現在のステータス

高度 476.9 km
速度 7.63 km/s
衛星直下点 31.47°N, 62.92°W
打ち上げ日 Aug 12, 2024
運用期間 1.2 years
タイプ internet

技術仕様

分類 Payload
質量 730.00 kg
乾燥質量 700.00 kg
総質量 730.00 kg
長さ 0.30 m
直径 4.10 m
スパン 29.00 m
形状 Box + pan
製造者 SPXS
バスタイプ Starlink V2M
フェーズステータス In Orbit
所有者/国 SPXS/US

大規模コンステレーション

Loading constellations...